Location: Newark
(52.3500°N, 175.9667°E)
Time: 10:18:48
(UTC+00:00)

Transit 4A - Pass Details

Date: 27 April 2021
Orbit: 870 x 974 km, 66.8° (Epoch: 07 May)

Event Time Altitude Azimuth Distance (km) Brightness Sun altitude
Rises 10:29:56 0° 212° (SSW) 3,615 - -20.0°
Reaches altitude 10° 10:32:29 10° 211° (SSW) 2,660 - -20.2°
Exits shadow 10:33:24 15° 210° (SSW) 2,326 9.7 -20.2°
Maximum altitude 10:38:41 79° 126° (SE) 948 7.8 -20.6°
Drops below altitude 10° 10:44:44 10° 41° (NE) 2,602 10.6 -20.9°
Sets 10:47:13 0° 40° (NE) 3,531 11.3 -21.1°
